User: anonymous   Login
Location: Dodge City Community College Allied Health Building
(37.7772°N, 100.0364°W)
Time: 12:07:40
(UTC+00:00)
Language:

Meteor 2-15 Rocket - Orbit

View from above orbital plane
View from above orbital plane
View from above satellite
View from above satellite

Ground track
Ground track

The orbit data is extracted from the following two-line orbital elements,

1 17291U 87001B   22142.67696196  .00000020  00000-0  45870-5 0  9998
2 17291  82.4696 214.8382 0012031  41.6707 318.5367 13.84594025787575
Epoch (UTC): 22 May 2022 16:14:49
Eccentricity: 0.0012031
inclination: 82.4696°
perigee height: 939 km
apogee height: 956 km
right ascension of ascending node: 214.8382°
argument of perigee: 41.6707°
revolutions per day: 13.84594025
mean anomaly at epoch: 318.5367°
orbit number at epoch: 78757

The dashed part of the orbit path shows where the satellite is in the earth's shadow,  

DLR